Location: Nebula Knoll Observatory
(43.6666°N, 71.0000°W)
Time: 18:34:07
(UTC-04:00)

Cosmos 1782 - Visible Passes

Search period start: 23 May 2017 00:00
Search period end: 02 June 2017 00:00
Orbit: 538 x 556 km, 82.5° (Epoch: 22 May)

Date Brightness Start Highest point End Pass type
(mag) Time Alt. Az. Time Alt. Az. Time Alt. Az.
24 May 5.9 04:36:43 10° NNE 04:39:24 17° ENE 04:42:04 10° ESE visible
25 May 5.9 04:31:17 10° NNE 04:34:06 18° ENE 04:36:53 10° ESE visible
26 May 5.8 04:25:52 10° NNE 04:28:47 19° ENE 04:31:41 10° ESE visible
27 May 5.7 04:20:26 10° NNE 04:23:28 20° ENE 04:26:29 10° ESE visible
28 May 5.6 04:15:01 10° NNE 04:18:09 21° ENE 04:21:16 10° SE visible
29 May 5.5 04:09:37 10° NNE 04:12:50 23° ENE 04:16:03 10° SE visible
30 May 5.3 04:04:12 10° NNE 04:07:30 24° ENE 04:10:48 10° SE visible
31 May 5.2 03:58:48 10° NNE 04:02:11 26° ENE 04:05:35 10° SE visible
01 Jun 5.1 03:53:24 10° NNE 03:56:52 27° ENE 04:00:19 10° SE visible
